ROMMA est une association bénévole à but non lucratif. Votre soutien est indispensable : ADHERER à ROMMA ou FAIRE un DON

Chambon - (38, Isère)

Oisans (2460 m)   Longitude: 06° 10' 42" E   Latitude: 45° 01' 32" N Station partenaire n°803
 

Détail journalier du     <<     >>

Température Humidité Vent Dir Rafale Dir. rafale Neige 1 Neige 2
Heure (°C) (%) (km/h) (km/h) (cm) (cm)
01:00 -3.410010SO20OSO045
02:00 -3.510014SO30OSO049
03:00 -4.11006OSO23OSO052
04:00 -4.39914SSO48SSO055
05:00 -4.49914SSO37SSO054
06:00 -4.49918SSO32SSO054
07:00 -4.59913SSO30SSO053
08:00 -4.69912SO32SO052
09:00 -4.49914SO28SO052
10:00 -3.89914OSO22OSO051
11:00 -2.910014OSO29OSO051
12:00 -4.19821SSO39SSO051
13:00 -4.09726SSO41SSO051
14:00 -3.59718S35SSO050
15:00 -4.69814S31S051
16:00 -4.99820S38SSO049
17:00 -4.69922SSO41SSO049
18:00 -5.29922SSO42SSO049
19:00 -4.99917SSO49SSO049
20:00 -5.09911SSO41SSO049
21:00 -4.89914SO28OSO049
22:00 -5.39920SO33SO050
23:00 -5.39915SO28SO049
minuit -5.29911OSO21OSO049

Graphique du 05-11-2019

 

Serveur OMMA